Hourly Data Report for October 14, 2016

All times are specified in Local Standard Time (LST). Add 1 hour to adjust for Daylight Saving Time where and when it is observed.

POND INLET A
NUNAVUT

72°41'22.000" N
77°58'08.000" W
61.60 m
2403206
71095
YIO

Download Data

Hourly Data (October 2016)
Hourly Data Report for October 14, 2016
Temp Definition
°C
Dew Point Temp Definition
°C
Rel Hum Definition
%
Wind Dir Definition
10's deg

Wind Spd Definition
km/h
Visibility Definition
km
Stn Press Definition
kPa
Hmdx Definition


Wind Chill Definition


Weather Definition


TIME
00:00 Legend Double Dagger -15.1 -17.9 79 14 22 16.1 100.52   -25 LegendNANA
01:00 Legend Double Dagger -14.4 -16.9 82 14 18 16.1 100.48   -23 LegendNANA
02:00 Legend Double Dagger -13.7 -16.1 82 14 11 16.1 100.46   -20 LegendNANA
03:00 Legend Double Dagger -15.2 -16.8 88 13 11 16.1 100.44   -22 LegendNANA
04:00 Legend Double Dagger -11.5 -13.3 87 8 5 16.1 100.41   -15 LegendNANA
05:00 Legend Double Dagger -13.0 -14.4 90 10 8 16.1 100.38   -18 LegendNANA
06:00 Legend Double Dagger -11.6 -12.9 90 7 5 16.1 100.36   -15 LegendNANA
07:00 Legend Double Dagger -12.5 -14.0 89 11 4 16.1 100.35   -15 LegendNANA
08:00 Legend Double Dagger -11.4 -13.0 88 17 5 16.1 100.32   -15 LegendNANA
09:00 Legend Double Dagger -11.7 -12.9 91 16 8 16.1 100.31   -16 LegendNANA
10:00 Legend Double Dagger -11.4 -13.7 83 19 8 16.1 100.30   -16 LegendNANA
11:00 Legend Double Dagger -11.8 -14.5 81 13 15 16.1 100.29   -19 LegendNANA
12:00 Legend Double Dagger -9.6 -12.5 79 17 5 16.1 100.28   -12 LegendNANA
13:00 Legend Double Dagger -9.7 -12.3 81 LegendMM 4 16.1 100.25   -12 LegendNANA
14:00 Legend Double Dagger -9.9 -12.4 82 18 8 16.1 100.24   -14 LegendNANA
15:00 Legend Double Dagger -9.9 -12.6 81 17 8 16.1 100.23   -14 LegendNANA
16:00 Legend Double Dagger -9.3 -11.2 86   0 16.1 100.22     LegendNANA
17:00 Legend Double Dagger -8.7 -10.9 84 9 5 16.1 100.21   -11 LegendNANA
18:00 Legend Double Dagger -8.4 -12.4 73 LegendMM 4 16.1 100.19   -11 LegendNANA
19:00 Legend Double Dagger -6.8 -10.4 76 LegendMM 4 16.1 100.15   -9 LegendNANA
20:00 Legend Double Dagger -8.5 -11.2 81 16 8 16.1 100.11   -13 LegendNANA
21:00 Legend Double Dagger -7.7 -10.7 79 18 5 16.1 100.07   -10 LegendNANA
22:00 Legend Double Dagger -7.5 -10.5 79 17 11 16.1 100.03   -13 LegendNANA
23:00 Legend Double Dagger -6.1 -9.6 76 22 8 16.1 99.99   -10 LegendNANA

Notes on Data Quality.

Legend

  • E = Estimated
  • M = Missing
  • NA = Not Available
  • ‡ = Partner data that is not subject to review by the National Climate Archives
Date modified: